Theta_e
319 319 319 319 318 318 318 318 317 317 316 314 314 316 315 314 314 315 315 315 316 317 319 320 320 320 318 313 311 324 342 330 316 313 311 310 309 309 306 308 310 309 311 318 320 322 323
319 319 319 319 318 318 318 317 317 316 315 315 314 315 315 313 314 314 314 315 316 317 319 319 319 319 313 307 319 328 329 320 317 314 314 312 311 313 310 310 309 311 311 317 319 319 321
318 318 318 318 319 318 317 317 317 315 315 315 315 313 313 314 313 313 314 315 317 319 319 319 320 320 315 313 320 323 325 319 319 318 313 316 315 312 311 308 312 311 307 314 315 317 316
318 318 318 319 319 318 317 317 316 315 315 314 314 314 313 313 314 313 314 317 319 319 319 319 321 319 313 322 323 321 322 319 319 317 316 317 317 313 311 313 310 307 307 303 313 315 315
318 318 319 319 318 318 317 317 316 315 314 314 314 314 314 313 314 314 315 317 319 319 319 321 318 317 313 321 314 320 320 316 317 318 319 319 315 310 310 306 304 305 300 303 306 313 313
318 318 318 318 318 317 317 316 315 315 315 314 313 313 313 312 313 314 315 318 320 318 319 321 318 314 317 313 314 316 321 320 316 315 314 313 310 306 307 305 298 300 301 303 304 309 311
317 317 317 317 317 317 317 316 316 315 315 314 314 313 313 313 313 314 315 319 315 312 318 312 312 311 314 318 317 315 319 319 319 314 307 310 304 301 305 307 307 306 304 303 308 311 308
317 317 317 317 317 316 316 316 316 315 314 314 314 314 313 313 312 314 317 321 321 321 312 321 316 315 317 320 312 314 319 313 313 307 311 308 303 308 309 308 307 305 304 305 309 311 309
317 317 317 317 316 316 316 316 316 316 315 314 313 313 314 313 313 314 316 322 327 323 311 313 319 315 315 316 312 311 315 313 310 307 308 305 308 310 308 307 305 305 303 304 305 308 309
316 317 317 316 315 316 316 316 316 315 315 314 313 314 314 313 308 319 318 326 325 323 305 308 311 315 317 315 310 317 317 313 310 306 307 306 310 308 307 304 306 301 307 305 305 304 299
316 316 316 315 315 315 315 315 315 315 315 314 314 314 313 311 319 321 325 325 324 322 296 310 311 320 316 311 313 313 318 313 307 307 308 305 306 306 305 305 307 303 307 305 304 305 303
316 316 316 315 315 315 314 314 314 315 314 314 314 314 313 313 317 322 327 324 321 305 296 308 313 311 309 311 312 315 313 315 314 309 309 308 312 310 308 309 309 310 307 306 306 304 297
315 315 315 315 315 314 314 314 314 314 314 313 313 314 312 320 317 325 324 318 305 299 310 306 308 310 308 308 309 311 309 307 303 300 301 306 307 310 311 306 309 309 305 297 295 295 294
315 315 315 315 315 314 314 313 313 313 313 313 311 313 312 316 322 325 321 310 298 306 306 312 310 310 306 308 308 309 307 305 308 306 303 300 298 306 310 307 305 306 305 298 292 293 296
314 314 315 315 314 314 313 313 313 313 312 312 310 317 320 319 317 321 313 302 303 306 309 306 307 305 306 309 307 308 307 305 308 309 302 301 301 311 311 310 309 304 301 308 301 303 298
314 314 314 314 314 314 313 313 313 313 312 312 321 320 317 321 324 320 308 301 307 310 309 307 300 305 303 306 306 307 307 309 308 311 313 307 300 310 310 310 309 307 308 300 302 294 293
313 314 314 313 313 313 313 313 313 312 310 310 318 316 322 321 323 313 303 306 309 311 309 304 303 303 306 306 308 305 305 308 311 306 310 309 306 304 309 305 304 304 301 303 303 301 294
313 313 313 314 313 313 313 312 312 310 308 304 321 313 319 321 309 310 307 308 303 309 310 308 307 305 304 305 305 306 303 305 310 308 304 309 307 301 303 310 311 309 305 305 299 297 301
312 313 313 313 313 313 312 312 312 310 308 318 318 315 321 319 306 309 312 308 307 306 307 307 306 308 309 305 301 305 305 306 307 307 306 306 304 298 300 305 309 306 306 306 307 307 300
312 312 313 313 313 313 312 312 312 310 311 316 319 311 314 315 314 310 308 308 307 309 307 308 307 309 307 305 307 304 304 306 308 308 309 309 305 301 297 298 303 301 303 304 302 298 298
312 312 313 313 313 313 313 312 312 310 311 320 318 313 315 308 311 311 310 309 305 305 308 309 306 306 304 301 303 303 306 307 307 306 306 306 299 301 302 303 302 301 300 301 300 300 297
312 312 312 313 313 313 313 312 312 310 309 318 311 312 314 310 311 308 307 307 304 304 305 303 303 304 304 302 302 300 302 303 303 307 305 307 299 301 299 302 302 296 299 299 299 300 300
311 312 312 313 313 313 313 312 312 311 312 315 318 319 313 306 308 305 304 304 303 304 305 305 302 301 300 303 305 305 306 306 305 302 302 302 300 297 293 299 299 293 296 298 297 297 297
311 311 312 312 313 313 313 313 312 312 311 319 318 315 308 303 304 302 303 303 302 302 299 302 304 301 305 308 307 306 304 304 304 304 306 300 301 299 293 295 286 297 300 298 294 296 297
311 311 311 312 312 313 313 313 313 312 312 317 318 313 309 302 303 301 302 302 303 305 303 302 303 307 309 306 300 298 298 299 301 304 303 304 300 295 292 292 295 295 296 295 294 291 296
310 310 311 311 312 313 314 314 313 313 312 317 318 320 310 303 300 304 302 303 300 301 302 303 309 310 309 302 298 292 290 294 294 296 303 302 303 296 294 289 286 292 298 302 300 287 297
309 310 310 311 311 313 314 314 314 313 313 316 316 328 311 304 306 306 301 301 304 303 301 303 305 305 309 300 294 293 293 297 290 290 292 294 295 290 291 289 289 294 297 301 288 288 299
308 308 309 310 310 312 313 314 314 314 313 315 317 327 315 308 308 309 308 304 304 303 299 305 303 304 301 296 295 294 293 295 294 295 293 292 290 290 291 286 281 298 298 292 297 301 300
308 308 309 309 310 311 312 313 314 314 313 313 312 319 320 311 308 312 311 312 311 309 306 308 306 303 303 298 299 298 295 296 295 288 298 290 294 292 291 289 297 300 301 304 304 301 301
Wind_Speed
11 12 12 12 12 11 11 11 10 10 9 10 11 11 10 9 9 9 9 10 11 11 11 11 9 8 8 9 14 10 9 9 9 10 14 14 13 15 15 15 15 15 16 10 14 18 19
12 12 12 12 12 11 11 12 11 11 11 9 10 11 9 9 9 8 9 10 11 11 11 10 9 7 8 15 4 15 11 10 12 14 16 18 16 14 14 15 13 14 15 18 19 19 19
12 12 12 12 11 12 13 13 13 13 11 11 10 9 9 9 9 9 10 10 11 11 10 9 7 8 11 17 3 6 8 11 14 15 15 16 16 13 10 13 14 9 15 16 16 19 16
12 13 12 12 12 13 14 14 14 13 12 10 10 9 9 9 9 9 10 11 11 10 10 9 7 9 10 9 15 9 12 13 13 12 13 9 12 13 15 14 10 16 17 15 18 17 14
13 13 12 13 13 13 14 13 14 13 12 11 10 10 8 9 9 9 10 12 9 9 10 7 7 10 13 2 10 12 13 11 10 8 9 9 7 14 16 16 12 10 13 18 17 19 19
13 13 14 13 14 13 13 13 14 13 12 11 10 9 9 8 8 8 10 9 3 6 8 10 12 9 14 13 12 15 13 15 9 10 11 10 8 13 16 14 14 17 19 20 22 20 22
14 14 14 15 15 13 13 13 13 14 13 12 10 10 8 7 7 6 8 5 6 7 12 12 14 11 6 8 14 16 14 12 11 12 14 15 11 14 20 20 19 19 19 22 11 15 15
15 15 15 16 15 14 13 13 12 13 13 13 11 10 8 6 5 6 7 8 11 12 14 24 22 18 15 5 10 13 16 14 15 15 16 15 16 18 19 19 19 22 20 9 16 11 5
15 15 15 15 15 14 14 13 12 11 13 12 11 10 8 4 3 5 12 16 13 12 9 18 24 20 15 12 15 16 18 17 14 16 18 18 19 20 19 20 19 17 18 13 18 13 9
15 15 16 16 15 15 15 15 14 13 12 11 10 9 6 2 2 11 14 17 8 7 7 12 13 14 16 13 17 16 20 17 16 19 18 17 21 18 14 19 11 14 14 17 13 16 10
17 17 17 16 16 16 15 14 14 14 13 11 9 8 5 12 12 9 6 6 10 3 8 9 12 4 12 18 5 17 20 16 20 18 17 18 20 16 20 15 15 18 17 20 19 15 11
17 17 17 17 17 16 15 14 14 13 12 11 9 7 4 6 7 14 10 7 5 7 10 10 10 8 13 15 20 10 12 16 17 21 21 18 20 16 18 15 19 18 16 20 14 14 15
17 18 18 18 18 18 17 16 15 13 11 11 9 8 7 9 8 7 8 7 8 9 4 3 2 10 12 14 19 9 12 16 14 15 17 20 20 19 12 16 19 8 13 11 14 14 15
19 20 20 19 19 18 17 16 15 14 12 10 6 6 12 9 12 9 7 8 11 16 8 9 5 10 9 14 16 18 13 16 19 21 17 16 15 24 19 19 17 16 16 15 19 15 17
19 19 20 20 19 18 17 16 15 13 11 7 0 5 6 7 12 8 7 9 13 9 12 10 12 14 15 15 18 18 19 17 19 21 19 17 20 17 16 15 15 18 17 16 21 22 17
20 21 22 21 21 21 21 19 16 12 9 3 5 7 6 5 5 5 8 14 19 5 8 10 11 20 18 5 14 19 13 7 17 18 13 15 16 4 12 3 8 12 13 16 10 18 21
20 21 22 22 21 21 21 19 16 12 8 2 5 6 5 7 5 6 9 15 6 10 7 8 13 17 19 18 2 3 14 14 24 21 18 8 10 14 8 8 14 13 16 17 16 11 7
21 21 22 23 23 22 21 19 16 11 4 2 6 1 5 4 7 8 12 3 3 9 8 7 8 13 12 16 17 17 9 7 15 14 12 16 9 11 18 4 13 17 17 12 8 14 14
22 23 24 24 25 24 22 19 16 11 4 7 6 5 4 5 6 8 13 4 2 7 10 8 11 12 10 14 11 10 7 7 5 8 7 7 11 10 16 18 3 6 9 19 21 11 15
22 23 24 25 26 25 24 21 15 10 3 3 6 2 6 6 9 8 11 12 3 3 5 4 13 10 12 11 14 15 11 7 5 8 1 3 7 12 12 1 7 14 11 14 15 9 16
21 23 24 25 25 25 25 25 24 15 6 4 4 5 4 8 10 10 9 11 13 11 11 13 9 5 8 11 14 14 17 13 2 9 1 1 8 13 17 21 16 14 17 16 12 14 20
21 22 24 26 26 26 26 28 30 32 24 3 7 7 7 7 7 10 5 11 11 14 9 12 9 14 13 13 3 12 11 12 10 8 5 2 8 14 17 19 10 10 15 15 12 15 3
20 21 24 25 26 26 26 28 29 30 23 8 8 9 7 5 11 9 11 11 12 9 9 5 8 12 13 12 11 11 11 13 11 12 13 13 7 9 14 13 10 9 7 5 9 13 12
20 21 22 23 25 26 26 27 27 28 26 10 11 10 7 8 8 8 11 12 16 6 10 9 8 9 13 13 12 13 13 14 13 11 7 9 12 8 10 10 12 5 8 12 15 11 14
20 20 21 22 23 24 24 25 26 28 29 9 11 9 6 6 12 14 13 11 15 14 9 3 4 6 8 12 11 9 11 10 6 12 12 6 9 10 10 10 5 4 2 5 4 9 11
20 20 21 21 22 22 22 23 23 23 26 10 11 11 7 8 12 15 13 14 12 13 7 7 10 5 6 10 10 6 8 10 2 3 11 15 7 6 13 8 4 4 10 15 11 7 11
19 20 20 20 21 21 21 21 22 21 21 11 8 13 7 8 11 14 11 11 11 13 11 13 14 9 10 11 6 8 2 6 6 4 1 3 4 6 9 5 7 12 17 15 7 4 9
18 19 19 19 20 20 19 20 20 22 20 11 7 8 8 8 8 8 11 11 10 10 10 15 7 8 6 9 5 4 6 6 5 10 9 8 7 5 3 3 2 7 7 7 2 8 8
18 18 19 19 19 19 19 19 18 19 20 17 7 7 7 2 3 5 9 7 9 9 8 9 7 8 6 8 9 7 7 6 9 4 10 6 8 4 5 2 2 4 6 4 3 6 8
Wind_Direction
10 7 358 355 348 342 338 328 334 329 326 323 314 304 298 299 300 303 306 301 294 289 286 284 284 293 274 229 253 142 153 150 179 200 223 231 236 241 228 239 220 216 245 126 93 87 112
11 2 356 352 340 340 334 336 337 334 331 318 306 303 303 302 300 304 297 292 289 284 280 275 276 293 249 256 4 143 183 168 208 205 221 229 231 238 253 251 224 217 234 126 121 120 110
6 360 354 346 340 339 340 342 337 337 328 318 305 306 305 305 303 298 293 291 282 277 268 262 265 262 267 251 336 144 166 195 215 210 229 233 243 259 254 265 255 228 215 131 146 128 119
1 358 350 345 339 343 344 341 335 335 326 318 315 301 301 300 298 295 294 292 281 265 262 257 262 258 264 245 242 209 201 199 195 216 251 252 255 277 255 268 227 225 212 219 147 151 150
1 354 350 345 342 345 340 337 334 335 326 321 315 309 300 298 296 291 290 295 278 266 254 247 240 221 259 141 216 223 214 215 195 226 231 275 247 239 242 252 228 205 212 217 208 169 179
358 355 354 347 348 341 336 335 335 330 327 324 316 311 303 295 290 293 297 289 257 260 226 222 258 259 247 232 191 217 208 236 191 215 216 224 225 231 244 226 218 213 224 216 214 186 188
356 356 352 351 349 340 336 333 332 332 330 323 318 309 298 287 280 287 291 210 206 199 233 230 184 225 147 214 150 200 201 222 198 209 219 202 214 214 230 230 240 240 212 225 103 155 197
354 353 350 349 344 337 335 332 331 333 326 319 314 309 300 291 280 289 271 253 347 331 299 223 253 228 267 170 201 210 189 204 213 220 216 234 226 236 230 239 232 252 266 38 105 134 236
351 350 345 343 339 335 335 334 331 327 322 317 314 305 298 280 275 244 238 272 319 321 285 271 210 233 229 209 240 202 197 207 220 226 230 227 234 214 242 247 245 233 249 223 165 163 243
351 347 344 342 336 337 334 334 333 329 320 314 308 301 291 220 259 223 220 238 264 331 277 240 191 219 218 204 232 236 189 216 230 238 229 249 243 270 247 240 261 245 253 257 233 161 207
350 347 344 339 339 335 333 332 330 325 317 311 300 290 256 230 322 262 20 297 346 274 282 121 155 224 211 198 208 207 186 207 240 232 242 251 247 244 250 248 236 252 236 245 233 184 232
348 344 339 340 340 336 333 330 327 321 314 308 292 277 235 201 233 261 303 317 267 237 253 155 136 201 224 213 231 195 204 210 237 248 258 255 270 263 239 222 251 252 233 255 218 218 218
347 342 339 339 339 337 333 329 327 322 316 312 287 251 218 316 258 348 327 271 241 248 72 285 110 182 223 211 236 199 197 224 232 235 245 258 240 252 238 263 238 236 258 243 235 224 236
348 343 341 343 340 337 332 327 325 322 322 322 296 202 223 255 316 323 290 248 259 285 302 37 357 310 259 228 221 241 218 231 222 251 268 246 231 217 216 225 256 208 223 248 250 228 240
348 344 344 346 343 337 331 330 325 321 319 324 29 200 239 236 228 265 270 244 245 329 4 0 326 281 258 248 249 221 225 243 246 217 238 266 267 354 245 198 211 249 261 241 260 274 275
349 345 345 346 344 341 337 337 333 324 319 271 265 217 151 158 185 248 253 263 294 60 8 326 306 299 301 320 345 295 252 288 238 272 232 235 269 272 289 310 269 266 274 274 245 267 264
349 346 346 348 347 343 340 340 340 335 334 191 248 229 97 195 178 234 253 275 332 76 30 335 314 317 320 323 287 279 316 355 341 346 347 301 271 273 200 227 251 242 232 248 270 260 258
350 347 349 349 349 345 343 345 350 357 36 218 268 291 124 188 224 235 250 0 320 340 341 316 299 287 300 318 319 318 96 188 307 322 326 351 302 265 266 211 318 303 309 299 297 262 264
351 350 353 352 349 347 346 347 350 358 20 307 265 99 141 225 265 301 347 286 66 324 346 332 313 318 337 308 302 305 114 140 60 17 32 10 299 273 267 278 255 264 291 337 319 264 268
351 350 355 354 350 348 348 349 348 334 299 274 278 171 145 198 265 321 327 320 4 119 315 322 314 307 305 302 300 285 273 125 112 87 122 235 277 287 275 35 353 319 308 327 314 306 292
351 352 356 355 351 350 349 355 356 357 323 262 293 57 6 6 12 334 4 343 326 337 16 315 309 357 339 317 310 303 359 343 136 136 169 27 271 276 284 292 297 295 292 300 261 275 297
354 356 356 355 354 353 357 0 2 359 347 1 10 355 341 66 334 314 27 22 344 342 347 325 340 334 319 300 348 320 348 334 327 326 351 339 299 312 287 292 237 263 256 285 271 277 154
356 0 358 355 354 355 359 4 5 7 351 33 8 347 290 68 349 3 27 343 330 341 308 316 339 326 305 7 342 316 302 296 282 289 291 298 282 323 288 298 312 262 308 309 14 35 336
358 1 0 356 357 356 359 2 2 3 8 21 1 333 322 48 51 19 354 343 331 330 303 335 11 336 356 328 307 276 255 258 253 254 250 287 279 243 264 274 255 62 47 64 77 58 78
360 3 0 359 358 358 357 360 3 2 -0 34 10 349 342 49 18 3 331 8 322 325 237 294 2 14 320 298 282 254 250 225 28 340 352 292 268 276 262 265 218 113 116 145 168 81 87
0 2 2 359 359 358 356 357 356 358 1 6 26 345 28 7 23 348 355 2 341 346 326 360 324 354 292 298 293 336 328 334 178 1 357 329 332 340 299 256 263 39 8 357 124 113 120
359 360 1 359 358 356 353 356 350 352 360 343 20 355 29 67 35 21 11 355 345 337 308 19 352 356 323 308 343 313 352 316 313 323 263 240 356 54 334 316 61 344 333 314 241 124 99
354 357 357 356 356 352 351 353 349 345 348 354 64 344 347 95 73 31 27 6 358 -0 338 356 344 356 340 347 350 336 353 358 356 33 354 21 1 38 3 65 101 326 1 32 76 80 102
350 353 352 352 353 348 348 348 347 344 345 345 18 4 312 42 71 68 63 22 8 16 345 329 345 5 0 342 348 343 358 4 11 47 11 43 34 51 70 123 197 64 93 126 88 107 97